Madisonville, KY

8:32 PM CST on December 14, 2019 (GMT -0600)
Madisonville

Weather History for K2I0 - October, 2019

Change the Weather History Date:

Thursday, October 24, 2019

  Actual Average (KOWB) Record (KOWB)
Temperature  
Mean Temperature 57 °F -  
Max Temperature 73 °F 67 °F 84 °F (1947)
Min Temperature 41 °F 45 °F 17 °F (1981)
Degree Days  
Heating Degree Days 8    
Growing Degree Days 7 (Base 50)    
Moisture  
Dew Point 37 °F    
Average Humidity 54    
Maximum Humidity 79    
Minimum Humidity 20    
Precipitation  
Precipitation 0.00 in - - ()
Sea Level Pressure  
Sea Level Pressure 30.23 in    
Wind  
Wind Speed 2 mph ()    
Max Wind Speed 15 mph    
Max Gust Speed 16 mph    
Visibility 10.0 miles    
Events      
Averages and records for this station are not official NWS values.
T = Trace of Precipitation, MM = Missing Value Source: Averaged Metar Reports

Daily Weather History Graph

Daily Weather History Graph

Search for Another Location

Airport or City:

Astronomy

Oct. 24, 2019 Rise Set
Actual Time 7:05 AM CDT 6:01 PM CDT
Civil Twilight 6:39 AM CDT 6:27 PM CDT
Nautical Twilight 6:08 AM CDT 6:58 PM CDT
Astronomical Twilight 5:38 AM CDT 7:28 PM CDT
Moon 2:43 AM CDT (10/24) 4:21 PM CDT (10/24)
Length of Visible Light 11h 48m
Length of Day
10h 55m
Waning Crescent, 16% of the Moon is Illuminated
Oct 24
Waning Crescent
Oct 27
New
Nov 4
First Quarter
Nov 12
Full
Nov 19
Last Quarter

Hourly Weather History & Observations

Time (CDT) Temp. Windchill Dew Point Humidity Pressure Visibility Wind Dir Wind Speed Gust Speed Precip Events Conditions
12:15 AM 47.5 °F - 35.2 °F 63% 30.17 in 10.0 mi Calm Calm - N/A   Clear
12:55 AM 43.5 °F - 36.1 °F 75% 30.19 in 10.0 mi Calm Calm - N/A   Clear
1:15 AM 44.8 °F - 36.5 °F 73% 30.18 in 10.0 mi Calm Calm - N/A   Clear
1:35 AM 44.2 °F 42.7 °F 36.3 °F 74% 30.18 in 10.0 mi South 3.5 mph - N/A   Clear
1:55 AM 44.1 °F 41.5 °F 36.0 °F 73% 30.18 in 10.0 mi South 4.6 mph - N/A   Clear
2:15 AM 42.6 °F - 34.7 °F 74% 30.18 in 10.0 mi Calm Calm - N/A   Clear
2:35 AM 43.7 °F - 35.8 °F 74% 30.18 in 10.0 mi Calm Calm - N/A   Clear
2:55 AM 42.8 °F - 35.6 °F 76% 30.19 in 10.0 mi Calm Calm - N/A   Clear
3:15 AM 42.6 °F - 36.0 °F 77% 30.19 in 10.0 mi Calm Calm - N/A   Clear
3:35 AM 43.7 °F 40.3 °F 35.8 °F 74% 30.19 in 10.0 mi South 5.8 mph - N/A   Clear
3:55 AM 46.0 °F - 35.1 °F 66% 30.19 in 10.0 mi Calm Calm - N/A   Clear
4:15 AM 43.2 °F - 34.5 °F 72% 30.19 in 10.0 mi Calm Calm - N/A   Clear
4:35 AM 43.9 °F - 35.2 °F 72% 30.19 in 10.0 mi Calm Calm - N/A   Clear
4:55 AM 44.6 °F - 34.7 °F 68% 30.20 in 10.0 mi Calm Calm - N/A   Clear
5:20 AM 46.0 °F 44.8 °F 35.6 °F 67% 30.20 in 10.0 mi South 3.5 mph - N/A   Clear
5:35 AM 45.9 °F 44.6 °F 35.8 °F 68% 30.20 in 10.0 mi South 3.5 mph - N/A   Clear
5:55 AM 44.8 °F 43.3 °F 35.6 °F 70% 30.21 in 10.0 mi SSW 3.5 mph - N/A   Clear
6:15 AM 45.7 °F - 36.0 °F 69% 30.21 in 10.0 mi Calm Calm - N/A   Clear
6:35 AM 45.5 °F 43.2 °F 35.8 °F 69% 30.22 in 10.0 mi SSW 4.6 mph - N/A   Clear
6:55 AM 41.9 °F - 34.7 °F 76% 30.23 in 10.0 mi Calm Calm - N/A   Clear
7:15 AM 41.0 °F - 35.1 °F 79% 30.24 in 10.0 mi Calm Calm - N/A   Clear
7:35 AM 41.5 °F - 35.4 °F 79% 30.24 in 10.0 mi Calm Calm - N/A   Clear
7:55 AM 43.9 °F - 37.2 °F 77% 30.24 in 10.0 mi Calm Calm - N/A   Clear
8:15 AM 48.4 °F - 38.1 °F 68% 30.25 in 10.0 mi Calm Calm - N/A   Clear
8:35 AM 50.5 °F - 38.8 °F 64% 30.26 in 10.0 mi Calm Calm - N/A   Clear
8:55 AM 53.2 °F - 38.8 °F 58% 30.27 in 10.0 mi Calm Calm - N/A   Clear
9:15 AM 55.4 °F - 37.8 °F 52% 30.27 in 10.0 mi SSW 4.6 mph - N/A   Clear
9:35 AM 58.1 °F - 36.3 °F 44% 30.27 in 10.0 mi SW 3.5 mph - N/A   Clear
9:55 AM 60.3 °F - 36.3 °F 41% 30.27 in 10.0 mi Calm Calm - N/A   Clear
10:15 AM 61.7 °F - 35.8 °F 38% 30.27 in 10.0 mi West 4.6 mph - N/A   Clear
10:35 AM 64.0 °F - 36.0 °F 35% 30.27 in 10.0 mi Calm Calm - N/A   Clear
10:55 AM 64.8 °F - 35.1 °F 33% 30.27 in 10.0 mi Calm Calm - N/A   Clear
11:35 AM 68.0 °F - 31.8 °F 26% 30.26 in 10.0 mi Calm Calm - N/A   Clear
11:55 AM 69.3 °F - 29.3 °F 23% 30.25 in 10.0 mi West 4.6 mph - N/A   Clear
12:15 PM 69.8 °F - 28.2 °F 21% 30.25 in 10.0 mi West 5.8 mph - N/A   Clear
12:35 PM 69.8 °F - 28.6 °F 22% 30.24 in 10.0 mi SW 4.6 mph - N/A   Clear
12:55 PM 70.7 °F - 28.8 °F 21% 30.23 in 10.0 mi Calm Calm - N/A   Clear
1:15 PM 71.4 °F - 29.8 °F 21% 30.21 in 10.0 mi WSW 3.5 mph - N/A   Clear
1:35 PM 71.8 °F - 30.2 °F 21% 30.21 in 10.0 mi Calm Calm - N/A   Clear
1:55 PM 72.1 °F - 29.8 °F 21% 30.20 in 10.0 mi Calm Calm - N/A   Clear
2:15 PM 73.0 °F - 30.6 °F 21% 30.20 in 7.0 mi WSW 3.5 mph - N/A   Clear
2:35 PM 72.1 °F - 29.8 °F 21% 30.20 in 10.0 mi Calm Calm - N/A   Clear
2:55 PM 73.2 °F - 29.7 °F 20% 30.20 in 10.0 mi South 3.5 mph - N/A   Clear
3:15 PM 72.5 °F - 28.8 °F 20% 30.19 in 10.0 mi Calm Calm - N/A   Clear
3:35 PM 72.9 °F - 29.7 °F 20% 30.19 in 10.0 mi Calm Calm - N/A   Clear
3:55 PM 72.7 °F - 29.1 °F 20% 30.19 in 10.0 mi Calm Calm - N/A   Clear
4:15 PM 70.9 °F - 30.6 °F 22% 30.20 in 10.0 mi Calm Calm - N/A   Clear
4:35 PM 70.7 °F - 29.5 °F 22% 30.20 in 10.0 mi Calm Calm - N/A   Mostly Cloudy
4:55 PM 70.2 °F - 33.3 °F 26% 30.20 in 10.0 mi Calm Calm - N/A   Scattered Clouds
5:15 PM 65.5 °F - 40.3 °F 40% 30.21 in 10.0 mi North 15.0 mph - N/A   Clear
5:35 PM 64.4 °F - 40.1 °F 41% 30.21 in 10.0 mi North 13.8 mph - N/A   Clear
5:55 PM 63.0 °F - 41.4 °F 45% 30.22 in 10.0 mi North 11.5 mph 16.1 mph N/A   Clear
6:15 PM 61.9 °F - 42.6 °F 49% 30.23 in 10.0 mi North 12.7 mph - N/A   Clear
6:35 PM 60.8 °F - 44.1 °F 54% 30.24 in 10.0 mi North 11.5 mph - N/A   Clear
6:55 PM 59.5 °F - 44.8 °F 58% 30.26 in 10.0 mi North 11.5 mph - N/A   Mostly Cloudy
7:15 PM 58.6 °F - 45.1 °F 61% 30.26 in 10.0 mi North 11.5 mph - N/A   Mostly Cloudy
7:35 PM 57.4 °F - 45.1 °F 64% 30.26 in 10.0 mi North 9.2 mph - N/A   Scattered Clouds
7:55 PM 56.5 °F - 45.1 °F 66% 30.28 in 10.0 mi NNW 9.2 mph - N/A   Mostly Cloudy
8:15 PM 56.3 °F - 45.3 °F 67% 30.27 in 10.0 mi North 6.9 mph - N/A   Overcast
8:35 PM 55.8 °F - 45.3 °F 68% 30.27 in 10.0 mi NNE 8.1 mph - N/A   Overcast
8:55 PM 55.8 °F - 45.0 °F 67% 30.27 in 10.0 mi North 8.1 mph - N/A   Overcast
9:15 PM 55.6 °F - 45.0 °F 67% 30.28 in 10.0 mi NNE 6.9 mph - N/A   Overcast
9:35 PM 55.4 °F - 45.0 °F 68% 30.29 in 10.0 mi NNE 5.8 mph - N/A   Overcast
9:55 PM 55.0 °F - 45.1 °F 69% 30.29 in 10.0 mi NNE 4.6 mph - N/A   Overcast
10:15 PM 54.9 °F - 45.3 °F 70% 30.29 in 10.0 mi NNE 4.6 mph - N/A   Overcast
10:35 PM 54.5 °F - 45.0 °F 70% 30.29 in 10.0 mi NE 3.5 mph - N/A   Mostly Cloudy
10:55 PM 53.6 °F - 44.8 °F 72% 30.29 in 10.0 mi Calm Calm - N/A   Mostly Cloudy
11:15 PM 52.3 °F - 44.8 °F 75% 30.29 in 10.0 mi North 3.5 mph - N/A   Mostly Cloudy
11:35 PM 53.1 °F - 45.1 °F 74% 30.27 in 10.0 mi Calm Calm - N/A   Mostly Cloudy
11:55 PM 51.8 °F - 44.6 °F 76% 30.26 in 10.0 mi Calm Calm - N/A   Mostly Cloudy